Regional Weather Roundup
Issued by NWS

Home | Current Version | Previous Version | Graphics & Text | Print | Product List | Glossary On
Versions: 1 2 3 4 5 6 7 8 9 10 11 12 13 14 15 16 17 18 19 20 21 22 23 24 25 26 27 28 29 30 31 32 33 34 35 36 37 38 39 40 41 42 43 44 45 46 47 48 49 50
533
ASUS43 KMPX 280110
RWRMN
WEATHER ROUNDUP FOR MINNESOTA
NATIONAL WEATHER SERVICE TWIN CITIES/CHANHASSEN MN
800 PM CDT MON MAR 27 2017


NOTE: "FAIR" INDICATES FEW OR NO CLOUDS BELOW 12,000 FEET WITH NO
SIGNIFICANT WEATHER AND/OR OBSTRUCTIONS TO VISIBILITY. N/A MEANS
CURRENT SKY AND/OR WEATHER CONDITIONS ARE NOT AVAILABLE.

MNZ060>063-068>070-280200-
   Twin Cities Metro

CITY           SKY/WX    TMP DP  RH WIND       PRES   REMARKS
TWIN CITIES    PTCLDY    50  37  61 VRB3      29.97R
ST PAUL        CLEAR     47  38  71 S3        29.97R
CRYSTAL        CLEAR     53  31  42 E3        29.96R
BLAINE         PTCLDY    54  36  50 CALM      29.96R
LAKEVILLE      CLEAR     45  37  76 CALM      29.97R
EDEN PRAIRIE   CLEAR     48  35  60 SE7       29.96R
SOUTH ST PAUL  CLEAR     48  36  61 CALM      29.97R
LAKE ELMO      FAIR      45  37  76 CALM      29.98R
$$
MNZ001>005-007-008-013>017-022>024-027-028-280200-
   Northwest Minnesota

CITY           SKY/WX    TMP DP  RH WIND       PRES   REMARKS
BEMIDJI        CLEAR     45  25  45 CALM      29.98R
HALLOCK        PTCLDY    39  37  93 NW3       30.03R
ROSEAU         MOCLDY    43  36  75 N6        30.03R
WARROAD        CLOUDY    39  34  81 CALM      30.03R
THIEF RVR FALL CLEAR    N/A N/A N/A N9        30.01S
CROOKSTON      CLEAR     39  39 100 N6        30.00S FOG
FOSSTON        CLEAR     43  39  87 N7        29.99S
DETROIT LAKES  CLEAR     48  37  66 N5        29.98S
MOORHEAD       CLEAR     48  45  87 N6        29.99R
PARK RAPIDS    CLEAR     53  28  38 E6        29.96R
MAHNOMEN       FAIR      46  42  88 N9        29.98R
$$
MNZ006-009>011-018-025>026-280200-
   North Central Minnesota

CITY           SKY/WX    TMP DP  RH WIND       PRES   REMARKS
BAUDETTE       CLOUDY    44  31  60 N8        30.00R
FLAG ISLAND    CLOUDY    43  30  61 CALM      30.02S
INTL FALLS     CLEAR     40  26  57 CALM      29.99R
WASKISH        CLEAR     37  30  75 CALM      30.00R
BIG FORK       CLEAR     43  23  45 CALM      29.99R
LONGVILLE      CLEAR     43  28  56 CALM      29.98R
GRAND RAPIDS   CLEAR     43  30  60 CALM      30.00R
CRANE LAKE     CLEAR     36  25  64 CALM      30.01R
ORR            CLEAR     45  23  42 CALM      29.97R
COOK           CLEAR     45  27  49 CALM      29.99R
WALKER         FAIR      44  29  54 CALM      29.98S
$$
MNZ012-019>021-037-280200-
   Northeast Minnesota

CITY           SKY/WX    TMP DP  RH WIND       PRES   REMARKS
DULUTH         PTCLDY    41  32  70 SE3       29.99R
ELY            CLEAR     43  25  49 CALM      29.98S
HIBBING        CLEAR     37  24  59 CALM      29.98R
EVELETH        CLEAR     40  22  47 CALM      29.99R
DULUTH HARBOR  CLEAR     37  34  87 CALM      30.02R
TWO HARBORS    CLEAR     43  34  70 CALM      29.99R
SILVER BAY     CLEAR     37  30  75 CALM      29.99R
GRAND MARAIS     N/A     35  30  82 CALM      30.01R
G MARAIS ARPRT CLEAR     37  28  70 SW3       30.00R
$$
MNZ029>031-032-039>041-046>048-054>057-064-280200-
   West Central Minnesota

CITY           SKY/WX    TMP DP  RH WIND       PRES   REMARKS
FERGUS FALLS   CLEAR     52  39  62 CALM      30.00R
WHEATON        CLEAR     54  36  50 NE3       29.99R HAZE
MORRIS         CLEAR     48  34  57 SE5       29.97R
ALEXANDRIA     CLEAR     52  34  50 S3        29.98R
ELBOW LAKE     FAIR      50  35  56 CALM      29.98R
WADENA         CLEAR     48  36  61 CALM      29.96R
GLENWOOD       CLEAR     48  36  61 SE5       29.99R
APPLETON       CLEAR     52  37  58 CALM      29.97R
BENSON         CLEAR     54  30  40 SE5       29.99R
ORTONVILLE     CLEAR     48  36  61 S3        29.97S
MADISON        CLEAR     52  41  66 CALM      29.98R
WILLMAR        FAIR      52  36  54 NE3       30.00R
$$
MNZ033>034-036-042>043-049>051-058-059-280200-
   Central Minnesota

CITY           SKY/WX    TMP DP  RH WIND       PRES   REMARKS
ST CLOUD       CLEAR     49  35  58 CALM      29.98R
SAUK CENTRE    FAIR      48  35  60 SE3       29.98R
PAYNESVILLE      N/A     48  36  62 CALM      29.99R
AITKIN         CLEAR     45  28  53 CALM      29.97R
PINE RIVER     CLEAR     50  32  50 N3        30.01R
BRAINERD       CLEAR     45  31  58 CALM      29.97R
STAPLES        CLEAR     52  32  46 SE3       29.97R
LONG PRAIRIE   CLOUDY    46  36  66 E3        29.98R
LITTLE FALLS   CLEAR     45  34  65 CALM      29.99R
LITCHFIELD     CLEAR     50  37  62 CALM      29.98R
BUFFALO        CLEAR     49  35  58 N3        29.98R
MAPLE LAKE     CLEAR     47  39  73 CALM      29.98R
HUTCHINSON     PTCLDY    49  38  66 N3        29.99R
$$
MNZ037-044-045-052-053-280200-
   East Central Minnesota

CITY           SKY/WX    TMP DP  RH WIND       PRES   REMARKS
PRINCETON      CLEAR     46  36  66 CALM      29.98R
MORA           CLEAR     46  32  57 CALM      29.99S
CAMBRIDGE      CLEAR     52  37  58 CALM      29.96R
RUSH CITY      PTCLDY    47  35  62 N3        29.98R
MOOSE LAKE     CLEAR     46  34  61 CALM      29.97R
CLOQUET        CLEAR     45  30  57 E3        29.99R
MCGREGOR       CLEAR     45  32  61 CALM      29.98R
$$
MNZ071>073-080-081-089-090-097-098-280200-
   Southwest Minnesota

CITY           SKY/WX    TMP DP  RH WIND       PRES   REMARKS
MONTEVIDEO     CLEAR     50  34  53 CALM      29.99R
GRANITE FALLS  CLEAR     52  36  54 NE3       29.98R
CANBY          CLOUDY    53  41  64 CALM      29.98R
MARSHALL       CLEAR     53  38  56 N3        29.97R
REDWOOD FALLS  CLEAR     54  33  45 E3        29.97R
OLIVIA         CLEAR     52  36  54 CALM      29.97R
PIPESTONE      CLEAR     52  36  54 SE5       29.96R
WINDOM         CLEAR     48  39  71 CALM      29.97S
WORTHINGTON    CLEAR     49  39  68 SE5       29.98R
JACKSON        CLEAR     48  37  66 CALM      29.98R
TRACY          CLEAR     51  40  65 CALM      29.97R
SLAYTON        CLEAR     48  38  66 CALM      29.98R
$$
MNZ065>067-074>077-082>085-091>093-280200-
   South Central Minnesota

CITY           SKY/WX    TMP DP  RH WIND       PRES   REMARKS
MANKATO        CLEAR     49  40  71 SE7       29.98R
NEW ULM        CLEAR     52  34  50 CALM      29.97R
ST JAMES       CLEAR     50  39  66 CALM      29.98R
FAIRMONT       MOCLDY    48  40  73 SE3       29.98R
GLENCOE        CLEAR     52  39  61 CALM      29.97R
FARIBAULT      MOCLDY    46  37  71 CALM      29.98R
OWATONNA       CLEAR     45  36  70 E3        29.97R
WASECA         MOCLDY    45  37  76 CALM      29.98R
ALBERT LEA     MOCLDY    45  37  76 NE3       29.97R
$$
MNZ078>079-086>088-094>096-280200-
   Southeast Minnesota

CITY           SKY/WX    TMP DP  RH WIND       PRES   REMARKS
ROCHESTER      CLOUDY    43  39  86 NE3       29.97R
RED WING       MOCLDY    45  36  70 CALM      29.97R
STANTON        CLEAR     47  37  67 CALM      29.96R
DODGE CENTER   PTCLDY    45  37  76 NE5       29.97R
WINONA         CLOUDY    43  37  81 CALM      29.99R
AUSTIN         CLOUDY    45  39  81 E3        29.96R
PRESTON        CLOUDY    42  38  84 N3        29.97R
$$
ABBREVIATIONS USED IN REMARKS
   TC - TEMPERATURES IN CELSIUS
  WCI - WIND CHILL INDEX
   HX - HEAT INDEX
  VSB - VISIBILITY
$$




USA.gov is the U.S. government's official web portal to all federal, state and local government web resources and services.